TimeMDT,TemperatureF,Dew PointF,Humidity,Sea Level PressureIn,VisibilityMPH,Wind Direction,Wind SpeedMPH,Gust SpeedMPH,PrecipitationIn,Events,Conditions,WindDirDegrees,DateUTC
12:15 AM,62.6,55.4,77,30.19,10.0,Calm,Calm,-,N/A,,Clear,0,2013-08-17 06:15:00
12:35 AM,62.6,55.4,77,30.19,10.0,NNW,4.6,-,N/A,,Clear,340,2013-08-17 06:35:00
12:55 AM,62.6,55.4,77,30.19,10.0,NNW,5.8,-,N/A,,Clear,330,2013-08-17 06:55:00
1:15 AM,60.8,55.4,82,30.18,8.0,North,5.8,-,N/A,,Clear,350,2013-08-17 07:15:00
1:35 AM,60.8,55.4,82,30.18,7.0,North,5.8,-,N/A,,Clear,10,2013-08-17 07:35:00
1:55 AM,60.8,53.6,77,30.17,5.0,North,5.8,-,N/A,,Clear,350,2013-08-17 07:55:00
2:15 AM,59.0,53.6,82,30.17,6.0,North,5.8,-,N/A,,Clear,350,2013-08-17 08:15:00
2:35 AM,59.0,53.6,82,30.17,5.0,North,6.9,-,N/A,,Clear,350,2013-08-17 08:35:00
2:55 AM,59.0,53.6,82,30.17,5.0,NNW,4.6,-,N/A,,Clear,330,2013-08-17 08:55:00
3:15 AM,59.0,53.6,82,30.16,5.0,North,5.8,-,N/A,,Clear,350,2013-08-17 09:15:00
3:35 AM,57.2,51.8,82,30.16,4.0,North,6.9,-,N/A,,Clear,360,2013-08-17 09:35:00
3:55 AM,57.2,51.8,82,30.16,4.0,Calm,Calm,-,N/A,,Clear,0,2013-08-17 09:55:00
4:15 AM,57.2,51.8,82,30.15,4.0,North,3.5,-,N/A,,Clear,350,2013-08-17 10:15:00
4:35 AM,57.2,51.8,82,30.15,4.0,NW,3.5,-,N/A,,Clear,310,2013-08-17 10:35:00
4:55 AM,55.4,51.8,88,30.15,4.0,NW,4.6,-,N/A,,Clear,310,2013-08-17 10:55:00
5:15 AM,55.4,51.8,88,30.14,5.0,Calm,Calm,-,N/A,,Clear,0,2013-08-17 11:15:00
5:35 AM,55.4,51.8,88,30.15,4.0,WNW,5.8,-,N/A,,Clear,300,2013-08-17 11:35:00
5:55 AM,55.4,50.0,82,30.15,4.0,West,5.8,-,N/A,,Clear,280,2013-08-17 11:55:00
6:15 AM,57.2,51.8,82,30.16,4.0,NW,3.5,-,N/A,,Mostly Cloudy,310,2013-08-17 12:15:00
6:35 AM,57.2,51.8,82,30.16,3.0,WNW,3.5,-,N/A,,Overcast,290,2013-08-17 12:35:00
6:55 AM,59.0,53.6,82,30.16,3.0,NNW,3.5,-,N/A,,Overcast,340,2013-08-17 12:55:00
7:15 AM,60.8,53.6,77,30.16,4.0,North,3.5,-,N/A,,Overcast,350,2013-08-17 13:15:00
7:35 AM,60.8,53.6,77,30.16,3.0,NNW,3.5,-,N/A,,Overcast,330,2013-08-17 13:35:00
7:55 AM,60.8,55.4,82,30.16,1.8,NW,3.5,-,N/A,,Overcast,310,2013-08-17 13:55:00
8:15 AM,60.8,55.4,82,30.16,2.0,NNW,3.5,-,N/A,,Overcast,340,2013-08-17 14:15:00
8:35 AM,62.6,57.2,82,30.16,3.0,Calm,Calm,-,N/A,,Scattered Clouds,0,2013-08-17 14:35:00
8:55 AM,64.4,57.2,77,30.17,4.0,NNW,5.8,-,N/A,,Clear,340,2013-08-17 14:55:00
9:15 AM,64.4,57.2,77,30.16,4.0,Calm,Calm,-,N/A,,Clear,0,2013-08-17 15:15:00
9:35 AM,66.2,59.0,78,30.16,5.0,Calm,Calm,-,N/A,,Clear,0,2013-08-17 15:35:00
9:55 AM,69.8,60.8,73,30.16,5.0,Calm,Calm,-,N/A,,Clear,0,2013-08-17 15:55:00
10:15 AM,71.6,60.8,69,30.16,7.0,Calm,Calm,-,N/A,,Clear,0,2013-08-17 16:15:00
10:35 AM,73.4,60.8,65,30.15,9.0,NE,4.6,-,N/A,,Clear,50,2013-08-17 16:35:00
10:55 AM,77.0,60.8,57,30.15,10.0,SE,5.8,-,N/A,,Clear,140,2013-08-17 16:55:00
11:15 AM,78.8,60.8,54,30.13,9.0,ESE,6.9,-,N/A,,Clear,120,2013-08-17 17:15:00
11:35 AM,82.4,59.0,45,30.13,10.0,SE,6.9,-,N/A,,Clear,130,2013-08-17 17:35:00
11:55 AM,82.4,57.2,42,30.13,10.0,Calm,Calm,-,N/A,,Clear,0,2013-08-17 17:55:00
12:15 PM,84.2,57.2,40,30.12,9.0,SSE,4.6,-,N/A,,Clear,150,2013-08-17 18:15:00
12:35 PM,84.2,59.0,42,30.11,10.0,SSE,6.9,-,N/A,,Clear,160,2013-08-17 18:35:00
12:55 PM,86.0,57.2,37,30.11,10.0,ESE,6.9,-,N/A,,Clear,120,2013-08-17 18:55:00
1:15 PM,87.8,57.2,35,30.10,7.0,SSE,4.6,-,N/A,,Clear,150,2013-08-17 19:15:00
1:35 PM,87.8,59.0,38,30.09,10.0,ESE,9.2,-,N/A,,Clear,120,2013-08-17 19:35:00
1:55 PM,89.6,57.2,33,30.08,10.0,ESE,9.2,-,N/A,,Clear,120,2013-08-17 19:55:00
2:15 PM,89.6,57.2,33,30.08,10.0,SE,9.2,-,N/A,,Clear,140,2013-08-17 20:15:00
2:35 PM,91.4,57.2,31,30.07,9.0,SE,10.4,-,N/A,,Clear,140,2013-08-17 20:35:00
2:55 PM,91.4,55.4,29,30.06,10.0,ESE,9.2,-,N/A,,Clear,120,2013-08-17 20:55:00
3:15 PM,93.2,53.6,26,30.06,10.0,ESE,10.4,-,N/A,,Clear,120,2013-08-17 21:15:00
3:35 PM,93.2,51.8,24,30.05,10.0,SSE,9.2,-,N/A,,Clear,150,2013-08-17 21:35:00
3:55 PM,95.0,50.0,22,30.04,10.0,SSE,9.2,-,N/A,,Clear,150,2013-08-17 21:55:00
4:15 PM,93.2,46.4,20,30.04,10.0,ESE,9.2,-,N/A,,Clear,120,2013-08-17 22:15:00
4:35 PM,96.8,44.6,17,30.03,10.0,South,8.1,-,N/A,,Clear,170,2013-08-17 22:35:00
4:55 PM,95.0,44.6,18,30.03,7.0,SE,5.8,-,N/A,,Clear,140,2013-08-17 22:55:00
5:15 PM,93.2,48.2,21,30.03,10.0,ESE,9.2,-,N/A,,Clear,120,2013-08-17 23:15:00
5:35 PM,93.2,46.4,20,30.03,10.0,SE,6.9,-,N/A,,Clear,130,2013-08-17 23:35:00
5:55 PM,91.4,50.0,24,30.03,10.0,ESE,5.8,-,N/A,,Clear,120,2013-08-17 23:55:00
6:15 PM,91.4,48.2,23,30.02,10.0,ESE,8.1,-,N/A,,Clear,120,2013-08-18 00:15:00
6:35 PM,89.6,48.2,24,30.02,10.0,ESE,8.1,-,N/A,,Clear,110,2013-08-18 00:35:00
6:55 PM,86.0,55.4,35,30.02,10.0,ESE,11.5,-,N/A,,Clear,110,2013-08-18 00:55:00
7:15 PM,84.2,57.2,40,30.03,10.0,ESE,10.4,-,N/A,,Clear,110,2013-08-18 01:15:00
7:35 PM,82.4,57.2,42,30.03,10.0,East,10.4,-,N/A,,Clear,100,2013-08-18 01:35:00
7:55 PM,80.6,57.2,45,30.04,10.0,East,10.4,-,N/A,,Clear,100,2013-08-18 01:55:00
8:15 PM,78.8,57.2,47,30.04,10.0,East,9.2,-,N/A,,Clear,100,2013-08-18 02:15:00
8:35 PM,78.8,55.4,44,30.05,10.0,East,9.2,-,N/A,,Clear,90,2013-08-18 02:35:00
8:55 PM,77.0,55.4,47,30.06,10.0,East,10.4,-,N/A,,Clear,100,2013-08-18 02:55:00
9:15 PM,75.2,55.4,50,30.07,10.0,East,11.5,-,N/A,,Clear,100,2013-08-18 03:15:00
9:35 PM,73.4,55.4,53,30.07,10.0,ESE,8.1,-,N/A,,Clear,110,2013-08-18 03:35:00
9:55 PM,73.4,55.4,53,30.08,10.0,East,11.5,-,N/A,,Clear,100,2013-08-18 03:55:00
10:15 PM,73.4,55.4,53,30.08,10.0,ESE,8.1,-,N/A,,Clear,110,2013-08-18 04:15:00
10:35 PM,71.6,55.4,57,30.08,10.0,ESE,10.4,-,N/A,,Clear,110,2013-08-18 04:35:00
10:55 PM,71.6,55.4,57,30.08,10.0,ESE,10.4,-,N/A,,Clear,110,2013-08-18 04:55:00
11:15 PM,71.6,55.4,57,30.08,10.0,ESE,11.5,-,N/A,,Clear,110,2013-08-18 05:15:00
11:35 PM,69.8,55.4,60,30.09,10.0,East,9.2,-,N/A,,Clear,100,2013-08-18 05:35:00
11:55 PM,69.8,57.2,64,30.09,10.0,East,9.2,-,N/A,,Clear,100,2013-08-18 05:55:00